PLATFORM,ARGOS_ID,DATE (YYYY/MM/DD HH:MI:SS),LATITUDE (degree_north),LONGITUDE (degree_east),TEMP LEVEL0 (degree_Celsius),EWCT LEVEL1 (meter/second),NSCT LEVEL1 (meter/second),QC,SVP_RCBN_Number,SVP_GNRL_ImmPercent,SVP_GNRL_BattVolt
62699,60642,2005/11/30 16:04:15,43.1060,5.8844,8.12,,,00144499,3,0,12
62699,60642,2005/11/30 17:00:11,43.1060,5.8842,6.52,-0.004838,0,00144400,4,0,12
62699,60642,2005/11/30 18:00:11,43.1064,5.8852,5,0.022551,0.012355,00144400,3,0,12
62699,60642,2005/11/30 19:00:46,43.1057,5.8942,4.76,0.201002,-0.021413,00144400,1,0,12
62699,60642,2005/11/30 20:00:00,42.9150,5.8210,9,-1.67468,-5.96648,00144400,1,0,12
62699,60642,2005/11/30 21:00:00,42.9150,5.8210,15.08,0,0,00144400,1,0,12
62699,60642,2005/11/30 22:00:41,42.9135,5.8226,16.04,0.035786,-0.04581,00111100,1,0,12
62699,60642,2005/11/30 23:00:10,42.9121,5.8195,15.96,-0.070736,-0.043618,00111100,8,0,12
62699,60642,2005/12/01 00:00:11,42.9108,5.8136,15.96,-0.133434,-0.040143,00111100,9,0,12
62699,60642,2005/12/01 01:00:00,42.9112,5.8078,15.96,-0.131158,0.013013,00111100,8,0,12
62699,60642,2005/12/01 02:00:40,42.9091,5.8002,15.96,-0.17049,-0.064762,00111100,7,0,12
62699,60642,2005/12/01 03:00:11,42.9093,5.7921,15.96,-0.184735,0.006228,00111100,5,0,12
62699,60642,2005/12/01 04:00:11,42.9104,5.7830,15.96,-0.205867,0.033976,00111100,5,0,12
62699,60642,2005/12/01 05:00:11,42.9129,5.7742,15.88,-0.199075,0.077219,00111100,11,0,12
62699,60642,2005/12/01 06:00:41,42.9164,5.7663,15.88,-0.177229,0.107213,00111100,10,0,12
62699,60642,2005/12/01 07:00:11,42.9196,5.7597,15.88,-0.150545,0.099671,00111100,7,0,12
62699,60642,2005/12/01 08:00:12,42.9234,5.7540,15.8,-0.12889,0.11734,00111100,13,0,12
62699,60642,2005/12/01 09:00:16,42.9260,5.7490,15.72,-0.112961,0.080218,00111100,6,0,12
62699,60642,2005/12/01 10:00:41,42.9291,5.7439,15.72,-0.114548,0.095091,00111100,6,0,12
62699,60642,2005/12/01 11:00:12,42.9318,5.7365,15.72,-0.168712,0.084073,00111100,11,0,12
62699,60642,2005/12/01 12:00:11,42.9340,5.7301,15.8,-0.144772,0.067971,00111100,9,0,12
62699,60642,2005/12/01 13:00:41,42.9363,5.7239,15.8,-0.139045,0.070454,00111100,7,0,12
62699,60642,2005/12/01 14:00:12,42.9384,5.7188,15.72,-0.116261,0.06539,00111100,6,0,12
62699,60642,2005/12/01 15:00:07,42.9409,5.7126,15.72,-0.140388,0.077326,00111100,8,0,12
62699,60642,2005/12/01 16:00:41,42.9427,5.7069,15.72,-0.127677,0.055077,00111100,3,0,12
62699,60642,2005/12/01 17:00:12,42.9456,5.7002,15.72,-0.152719,0.090301,00111100,4,0,12
62699,60642,2005/12/01 18:00:12,42.9480,5.6933,15.72,-0.156004,0.07413,00111100,4,0,12
62699,60642,2005/12/01 19:00:11,42.9509,5.6856,15.72,-0.174132,0.089599,00111100,5,0,12
62699,60642,2005/12/01 20:00:41,42.9537,5.6769,15.72,-0.195057,0.08577,00111100,1,0,12
62699,60642,2005/12/01 21:00:12,42.9565,5.6680,15.72,-0.202829,0.087187,00111100,1,0,12
62699,60642,2005/12/01 22:00:13,42.9602,5.6577,15.72,-0.232767,0.114252,00111100,6,1.5873,12
62699,60642,2005/12/01 23:00:11,42.9645,5.6460,15.72,-0.264608,0.13289,00111100,4,1.5873,12
62699,60642,2005/12/02 00:00:41,42.9700,5.6346,15.72,-0.25553,0.168477,00111100,3,3.1746,12
62699,60642,2005/12/02 01:00:11,42.9754,5.6252,15.72,-0.214222,0.168194,00111100,1,1.5873,12
62699,60642,2005/12/02 02:00:08,42.9808,5.6167,15.72,-0.192241,0.166931,00111100,4,1.5873,12
62699,60642,2005/12/02 03:00:41,42.9863,5.6072,15.72,-0.212709,0.168338,00111100,5,1.5873,12
62699,60642,2005/12/02 04:00:11,42.9922,5.5999,15.72,-0.166319,0.183768,00111100,7,1.5873,12
62699,60642,2005/12/02 05:00:11,42.9981,5.5938,15.64,-0.137808,0.182236,00111100,4,1.5873,12
62699,60642,2005/12/02 06:00:41,43.0032,5.5868,15.64,-0.156819,0.156224,00111100,1,1.5873,12
62699,60642,2005/12/02 07:00:11,43.0074,5.5791,15.72,-0.175387,0.130818,00111100,4,4.7619,12
62699,60642,2005/12/02 08:00:18,43.0115,5.5704,15.8,-0.196119,0.126393,00111100,6,7.93651,12
62699,60642,2005/12/02 09:00:42,43.0152,5.5600,15.88,-0.233326,0.113527,00111100,5,4.7619,12
62699,60642,2005/12/02 10:00:41,43.0188,5.5497,15.88,-0.232674,0.111226,00111100,8,6.34921,12
62699,60642,2005/12/02 11:00:17,43.0231,5.5395,15.88,-0.231882,0.133708,00111100,4,11.1111,12
62699,60642,2005/12/02 12:00:09,43.0275,5.5281,15.88,-0.25799,0.136208,00111100,7,9.52381,12
62699,60642,2005/12/02 13:01:41,43.0328,5.5168,15.88,-0.24878,0.159624,00111100,4,11.1111,12
62699,60642,2005/12/02 14:00:11,43.0382,5.5074,15.88,-0.217662,0.171069,00111100,3,15.873,12
62699,60642,2005/12/02 15:00:11,43.0439,5.4992,15.88,-0.185112,0.176059,00111100,3,15.873,12
62699,60642,2005/12/02 16:00:41,43.0486,5.4923,15.88,-0.154464,0.143971,00111100,3,17.4603,12
62699,60642,2005/12/02 17:00:11,43.0521,5.4854,15.8,-0.15705,0.109015,00111100,5,12.6984,12
62699,60642,2005/12/02 18:00:15,43.0544,5.4779,15.8,-0.169088,0.070962,00111100,3,25.3968,12
62699,60642,2005/12/02 19:01:05,43.0563,5.4694,15.8,-0.189211,0.057882,00111100,3,23.8095,12
62699,60642,2005/12/02 20:00:11,43.0575,5.4612,15.8,-0.187882,0.037629,00111100,1,30.1587,12
62699,60642,2005/12/02 21:00:41,43.0592,5.4531,15.8,-0.181292,0.052075,00111100,3,19.0476,12
62699,60642,2005/12/02 22:00:17,43.0602,5.4455,15.8,-0.172666,0.031095,00111100,1,14.2857,12
62699,60642,2005/12/02 23:00:11,43.0605,5.4373,15.72,-0.185362,0.009282,00111100,3,15.873,12
62699,60642,2005/12/03 00:00:41,43.0609,5.4281,15.72,-0.205904,0.012253,00111100,5,14.2857,12
62699,60642,2005/12/03 01:00:11,43.0604,5.4196,15.72,-0.193435,-0.015574,00111100,6,9.52381,12
62699,60642,2005/12/03 02:00:10,43.0610,5.4105,15.72,-0.20542,0.018538,00111100,4,11.1111,12
62699,60642,2005/12/03 03:00:41,43.0616,5.4010,15.64,-0.212557,0.018374,00111100,4,7.93651,12
62699,60642,2005/12/03 04:00:11,43.0621,5.3922,15.64,-0.200258,0.015574,00111100,1,11.1111,12
62699,60642,2005/12/03 05:00:11,43.0618,5.3830,15.64,-0.207615,-0.009266,00111100,4,20.6349,12
62699,60642,2005/12/03 06:00:41,43.0619,5.3733,15.64,-0.21709,0.003063,00111100,7,14.2857,12
62699,60642,2005/12/03 07:00:12,43.0611,5.3658,15.64,-0.170627,-0.024911,00111100,5,3.1746,12
62699,60642,2005/12/03 08:00:12,43.0596,5.3580,15.64,-0.176026,-0.046331,00111100,5,1.5873,12
62699,60642,2005/12/03 09:00:42,43.0583,5.3499,15.64,-0.18129,-0.039822,00111100,6,7.93651,12
62699,60642,2005/12/03 10:00:12,43.0564,5.3429,15.64,-0.159308,-0.059179,00111100,7,11.1111,12
62699,60642,2005/12/03 11:00:41,43.0535,5.3350,15.64,-0.176874,-0.088858,00111100,5,12.6984,12
62699,60642,2005/12/03 12:00:12,43.0501,5.3273,15.64,-0.175205,-0.10587,00111100,5,30.1587,12
62699,60642,2005/12/03 13:00:10,43.0461,5.3195,15.56,-0.176159,-0.123619,00111100,6,41.2698,12
62699,60642,2005/12/03 14:00:40,43.0424,5.3105,15.56,-0.201482,-0.113339,00111100,5,61.9048,12
62699,60642,2005/12/03 15:00:10,43.0387,5.3012,15.56,-0.211709,-0.115244,00111100,6,76.1905,12
62699,60642,2005/12/03 16:01:07,43.0342,5.2910,15.56,-0.226689,-0.136827,00111100,4,90.4762,12
62699,60642,2005/12/03 17:00:17,43.0301,5.2802,15.64,-0.247275,-0.128422,00111100,5,77.7778,12
62699,60642,2005/12/03 18:00:16,43.0257,5.2690,15.64,-0.25296,-0.135943,00111100,3,53.9683,12
62699,60642,2005/12/03 19:00:21,43.0220,5.2575,15.64,-0.25932,-0.114125,00111100,5,39.6825,12
62699,60642,2005/12/03 20:00:40,43.0185,5.2453,15.64,-0.274057,-0.107539,00111100,1,11.1111,12
62699,60642,2005/12/03 21:00:08,43.0159,5.2346,15.64,-0.243809,-0.081028,00111100,1,11.1111,12
62699,60642,2005/12/03 22:00:11,43.0135,5.2256,15.64,-0.203089,-0.074068,00111100,1,4.7619,12
62699,60642,2005/12/03 23:00:12,43.0104,5.2174,15.64,-0.185148,-0.095725,00111100,5,1.5873,12
62699,60642,2005/12/04 00:00:41,43.0064,5.2096,15.64,-0.174768,-0.122563,00111100,7,1.5873,12
62699,60642,2005/12/04 01:00:12,43.0018,5.2015,15.56,-0.18445,-0.143236,00111100,3,1.5873,12
62699,60642,2005/12/04 02:00:11,42.9969,5.1923,15.48,-0.207885,-0.151391,00111100,9,0,12
62699,60642,2005/12/04 03:00:11,42.9917,5.1844,15.4,-0.178475,-0.160615,00111100,8,0,12
62699,60642,2005/12/04 04:00:41,42.9872,5.1759,15.4,-0.190458,-0.137845,00111100,6,0,12
62699,60642,2005/12/04 05:00:12,42.9828,5.1673,15.4,-0.195897,-0.137009,00111100,5,0,12
62699,60642,2005/12/04 06:00:11,42.9798,5.1584,15.4,-0.201165,-0.092688,00111100,8,0,12
62699,60642,2005/12/04 07:00:11,42.9760,5.1495,15.4,-0.20112,-0.117372,00111100,10,0,12
62699,60642,2005/12/04 08:00:41,42.9738,5.1396,15.4,-0.22188,-0.067391,00111100,6,0,12
62699,60642,2005/12/04 09:00:11,42.9720,5.1296,15.4,-0.227895,-0.056065,00111100,9,0,12
62699,60642,2005/12/04 10:00:11,42.9709,5.1195,15.4,-0.228262,-0.033976,00111100,6,0,12
62699,60642,2005/12/04 11:00:12,42.9710,5.1098,15.48,-0.219163,0.003088,00111100,6,0,12
62699,60642,2005/12/04 12:00:41,42.9707,5.1006,15.48,-0.206262,-0.009192,00111100,9,0,12
62699,60642,2005/12/04 13:00:11,42.9702,5.0919,15.56,-0.198277,-0.015574,00111100,8,0,12
62699,60642,2005/12/04 14:00:11,42.9689,5.0823,15.56,-0.216968,-0.040154,00111100,8,0,12
62699,60642,2005/12/04 15:00:29,42.9666,5.0715,15.56,-0.242882,-0.070688,00111100,4,1.5873,12
62699,60642,2005/12/04 16:00:41,42.9648,5.0588,15.56,-0.286095,-0.055413,00111100,4,1.5873,12
62699,60642,2005/12/04 17:00:11,42.9630,5.0461,15.56,-0.28947,-0.056065,00111100,4,3.1746,12
62699,60642,2005/12/04 18:00:12,42.9616,5.0331,15.64,-0.293764,-0.04323,00111100,3,1.5873,12
62699,60642,2005/12/04 19:00:09,42.9596,5.0205,15.72,-0.28505,-0.061826,00111100,1,15.873,12
62699,60642,2005/12/04 20:00:40,42.9580,5.0078,15.72,-0.28463,-0.048998,00111100,3,46.0317,12
62699,60642,2005/12/04 21:00:11,42.9557,4.9952,15.72,-0.287143,-0.071618,00111100,1,30.1587,12
62699,60642,2005/12/04 22:00:10,42.9536,4.9837,15.72,-0.260045,-0.064882,00111100,1,57.1429,12
62699,60642,2005/12/04 23:00:14,42.9508,4.9730,15.72,-0.241629,-0.086389,00111100,3,20.6349,12
62699,60642,2005/12/05 00:00:40,42.9471,4.9627,15.72,-0.231197,-0.113464,00111100,5,9.52381,12
62699,60642,2005/12/05 01:00:11,42.9424,4.9532,15.72,-0.216539,-0.14635,00111100,7,4.7619,12
62699,60642,2005/12/05 02:00:12,42.9361,4.9436,15.72,-0.217015,-0.194537,00111100,8,1.5873,12
62699,60642,2005/12/05 03:00:41,42.9302,4.9317,15.72,-0.266959,-0.18078,00111100,9,3.1746,12
62699,60642,2005/12/05 04:00:12,42.9237,4.9197,15.64,-0.273602,-0.202399,00111100,7,4.7619,12
62699,60642,2005/12/05 05:00:17,42.9169,4.9068,15.64,-0.29138,-0.209744,00111100,5,7.93651,12
62699,60642,2005/12/05 06:00:40,42.9101,4.8927,15.64,-0.316938,-0.208701,00111100,4,6.34921,12
62699,60642,2005/12/05 07:00:12,42.9031,4.8786,15.64,-0.321499,-0.217907,00111100,5,33.3333,12
62699,60642,2005/12/05 08:00:11,42.8968,4.8644,15.64,-0.321384,-0.194645,00111100,5,30.1587,12
62699,60642,2005/12/05 09:00:41,42.8902,4.8498,15.64,-0.32765,-0.202173,00111100,8,28.5714,12
62699,60642,2005/12/05 10:00:13,42.8837,4.8366,15.64,-0.301073,-0.202342,00111100,1,14.2857,12
62699,60642,2005/12/05 11:00:09,42.8784,4.8247,15.64,-0.269637,-0.163886,00111100,3,30.1587,12
62699,60642,2005/12/05 12:00:40,42.8723,4.8131,15.64,-0.260329,-0.186805,00111100,4,47.619,12
62699,60642,2005/12/05 13:00:11,42.8660,4.8029,15.64,-0.23278,-0.196171,00111100,1,53.9683,12
62699,60642,2005/12/05 14:00:13,42.8592,4.7933,15.64,-0.217225,-0.209918,00111100,5,39.6825,12
62699,60642,2005/12/05 15:00:41,42.8514,4.7843,15.64,-0.202212,-0.239063,00111100,1,28.5714,12
62699,60642,2005/12/05 19:00:16,42.8129,4.7487,15.64,-0.201947,-0.297809,00111100,1,36.5079,12
62699,60642,2005/12/05 20:00:42,42.8023,4.7372,15.56,-0.258725,-0.32506,00111100,1,63.4921,12
62699,60642,2005/12/05 21:00:19,42.7933,4.7256,15.56,-0.264591,-0.279775,00111100,1,96.8254,12
62699,60642,2005/12/05 23:00:12,42.7742,4.6994,15.56,-0.297253,-0.295262,00111100,1,100,12
62699,60642,2005/12/06 00:00:18,42.7657,4.6848,15.56,-0.330491,-0.262107,00111100,1,98.4127,12
62699,60642,2005/12/06 02:00:41,42.7505,4.6541,15.48,-0.347005,-0.233997,00111100,1,98.4127,12
62699,60642,2005/12/06 03:00:11,42.7439,4.6378,15.48,-0.37283,-0.20557,00111100,1,96.8254,12
62699,60642,2005/12/06 08:00:41,42.7163,4.5703,15.48,-0.305787,-0.170215,00111100,3,95.2381,12
62699,60642,2005/12/06 09:00:40,42.7105,4.5593,15.48,-0.249712,-0.179197,00111100,1,88.8889,12
62699,60642,2005/12/06 11:00:12,42.6968,4.5370,15.4,-0.254074,-0.212405,00111100,3,95.2381,12
62699,60642,2005/12/06 14:00:18,42.6755,4.4963,15.4,-0.307856,-0.219179,00111100,4,98.4127,12
62699,60642,2005/12/06 15:00:42,42.6693,4.4811,15.4,-0.342902,-0.190234,00111100,1,98.4127,12
62699,60642,2005/12/06 17:00:20,42.6590,4.4520,15.4,-0.331484,-0.159558,00111100,1,98.4127,12
62699,60642,2005/12/06 19:00:11,42.6508,4.4227,15.4,-0.333208,-0.126797,00111100,1,100,12
62699,60642,2005/12/06 21:00:20,42.6428,4.3972,15.32,-0.289307,-0.123396,00111100,1,98.4127,12
62699,60642,2005/12/06 22:01:10,42.6382,4.3852,15.32,-0.268922,-0.140136,00111100,1,100,12
62699,60642,2005/12/07 00:00:17,42.6317,4.3587,15.24,-0.303318,-0.101129,00111100,1,98.4127,12
62699,60642,2005/12/07 01:00:12,42.6293,4.3452,15.24,-0.307215,-0.074233,00111100,1,98.4127,12
62699,60642,2005/12/07 02:01:05,42.6268,4.3314,15.16,-0.309068,-0.076098,00111100,4,98.4127,12
62699,60642,2005/12/07 03:00:12,42.6254,4.3190,15.16,-0.286021,-0.043889,00111100,1,95.2381,12
62699,60642,2005/12/07 06:00:11,42.6235,4.2803,15.08,-0.293209,-0.019564,00111100,1,96.8254,12
62699,60642,2005/12/07 12:01:11,42.6024,4.2125,15.08,-0.256154,-0.10832,00111100,1,100,12
62699,60642,2005/12/07 13:00:11,42.5980,4.1978,15.08,-0.339886,-0.138208,00111100,1,100,12
62699,60642,2005/12/07 14:00:24,42.5946,4.1829,15.08,-0.33757,-0.10464,00111100,1,98.4127,12
62699,60642,2005/12/07 15:00:41,42.5912,4.1678,15.08,-0.341742,-0.104524,00111100,1,98.4127,12
62699,60642,2005/12/07 17:00:12,42.5883,4.1387,15.08,-0.332204,-0.044968,00111100,1,90.4762,12
62699,60642,2005/12/07 20:00:11,42.5880,4.1000,15.08,-0.29338,-0.003089,00111100,1,60.3175,12
62699,60642,2005/12/08 03:00:12,42.5701,4.0302,14.92,-0.226779,-0.078981,00111100,1,4.7619,12
62699,60642,2005/12/08 10:00:11,42.5477,3.9617,14.92,-0.222645,-0.098844,00111100,4,0,12
62699,60642,2005/12/08 14:00:12,42.5360,3.9181,14.92,-0.248038,-0.09034,00111100,1,26.9841,12
62699,60642,2005/12/08 15:00:10,42.5324,3.9083,14.84,-0.223174,-0.111257,00111100,1,52.381,12
62699,60642,2005/12/08 16:00:41,42.5280,3.8981,14.84,-0.230187,-0.134745,00111100,1,79.3651,12
62699,60642,2005/12/08 19:00:19,42.5150,3.8677,14.84,-0.231154,-0.134119,00111100,1,98.4127,12
62699,60642,2005/12/08 23:00:11,42.4946,3.8184,14.84,-0.280807,-0.157614,00111100,1,100,12
62699,60642,2005/12/09 01:00:17,42.4834,3.7862,14.76,-0.366399,-0.172826,00111100,1,100,12
62699,60642,2005/12/09 04:00:08,42.4718,3.7459,14.68,-0.306277,-0.119531,00111100,1,100,12
62699,60642,2005/12/09 05:00:41,42.4650,3.7377,14.68,-0.185133,-0.208127,00111100,1,100,12
62699,60642,2005/12/09 09:00:18,42.4244,3.7103,14.6,-0.15638,-0.314009,00111100,1,100,12
62699,60642,2005/12/09 11:01:11,42.4021,3.6947,14.6,-0.176573,-0.341879,00111100,1,100,12
62699,60642,2005/12/09 12:01:41,42.3908,3.6873,14.6,-0.167401,-0.346144,00111100,1,100,12
62699,60642,2005/12/09 13:00:14,42.3794,3.6811,14.6,-0.144953,-0.360838,00111100,1,100,12
62699,60642,2005/12/09 19:00:11,42.3078,3.6433,14.44,-0.143846,-0.368642,00111100,1,100,12
62699,60642,2005/12/09 20:00:11,42.2968,3.6370,14.44,-0.14392,-0.339762,00111100,1,100,12
62699,60642,2005/12/09 22:01:08,42.2744,3.6194,14.36,-0.199506,-0.343223,00111100,1,98.4127,12
62699,60642,2005/12/10 01:00:20,42.2436,3.6087,14.36,-0.081899,-0.318527,00111100,1,100,12
62699,60642,2005/12/10 03:00:40,42.2169,3.6036,14.28,-0.058159,-0.411206,00111100,1,100,12
62699,60642,2005/12/10 06:00:41,42.1744,3.5831,14.28,-0.156354,-0.437532,00111100,4,100,12
62699,60642,2005/12/10 09:00:41,42.1313,3.5524,14.2,-0.23433,-0.44375,00111100,4,100,12
62699,60642,2005/12/10 10:00:12,42.1189,3.5419,14.2,-0.242495,-0.386115,00111100,1,98.4127,12
62699,60642,2005/12/10 11:00:13,42.1062,3.5327,14.2,-0.210743,-0.392162,00111100,3,100,12
62699,60642,2005/12/10 13:00:13,42.0830,3.5164,14.2,-0.186796,-0.358295,00111100,3,100,12
62699,60642,2005/12/10 15:00:16,42.0592,3.5047,14.2,-0.134074,-0.367408,00111100,1,100,12
62699,60642,2005/12/10 16:00:41,42.0460,3.4996,14.12,-0.116161,-0.404903,00111100,3,98.4127,12
62699,60642,2005/12/10 17:00:12,42.0345,3.4943,14.12,-0.122566,-0.358091,00111100,3,98.4127,12
62699,60642,2005/12/10 19:00:14,42.0084,3.4835,14.12,-0.123875,-0.40297,00111100,1,98.4127,12
62699,60642,2005/12/10 20:00:58,41.9945,3.4771,14.12,-0.145128,-0.424152,00111100,1,96.8254,12
62699,60642,2005/12/10 21:00:11,41.9814,3.4701,14.12,-0.162833,-0.409978,00111100,1,95.2381,12
62699,60642,2005/12/10 22:00:11,41.9689,3.4622,14.12,-0.181406,-0.386093,00111100,1,92.0635,12
62699,60642,2005/12/11 06:00:17,41.8706,3.4266,14.12,-0.102252,-0.379451,00111100,1,87.3016,12
62699,60642,2005/12/11 07:00:41,41.8547,3.4275,14.2,0.020566,-0.487859,00111100,1,98.4127,12
62699,60642,2005/12/11 08:00:13,41.8391,3.4291,14.28,0.037103,-0.485622,00111100,4,95.2381,12
62699,60642,2005/12/11 09:00:11,41.8233,3.4313,14.36,0.05066,-0.488293,00111100,4,98.4127,12
62699,60642,2005/12/11 11:00:12,41.7885,3.4315,14.44,0.002302,-0.537368,00111100,4,39.6825,12
62699,60642,2005/12/11 14:00:41,41.6905,3.4138,14.28,-0.135617,-1.00629,00111100,1,3.1746,12
62699,60642,2005/12/11 20:00:39,41.5471,3.2848,13.48,-0.4965,-0.738279,00111100,1,7.93651,12
62699,60642,2005/12/11 21:00:11,41.5337,3.2658,13.4,-0.442703,-0.417137,00111100,1,3.1746,12
62699,60642,2005/12/11 22:00:11,41.5208,3.2485,13.4,-0.400039,-0.398448,00111100,1,3.1746,12
62699,60642,2005/12/11 23:00:41,41.5079,3.2334,13.4,-0.34635,-0.395156,00111100,1,3.1746,12
62699,60642,2005/12/12 03:00:12,41.4609,3.1979,13.56,-0.205772,-0.36366,00111100,1,1.5873,12
62699,60642,2005/12/12 04:00:00,41.4366,3.1841,13.56,-0.320329,-0.753696,00111100,3,1.5873,12
62699,60642,2005/12/12 13:00:41,41.3666,3.1199,14.04,-0.165085,-0.239864,00111100,1,4.7619,12
62699,60642,2005/12/12 14:00:12,41.3618,3.1177,14.04,-0.051414,-0.149464,00111100,1,3.1746,12
62699,60642,2005/12/12 15:00:11,41.3589,3.1165,14.12,-0.027828,-0.089599,00111100,3,1.5873,12
62699,60642,2005/12/12 16:00:41,41.3556,3.1169,14.12,0.009197,-0.101086,00111100,1,0,12
62699,60642,2005/12/12 18:00:14,41.3449,3.1153,14.12,-0.018619,-0.16587,00111100,1,1.5873,12
62699,60642,2005/12/12 19:00:12,41.3385,3.1113,14.2,-0.092811,-0.19779,00111100,1,1.5873,12
62699,60642,2005/12/12 20:00:40,41.3306,3.1064,14.28,-0.112765,-0.242128,00111100,1,0,12
62699,60642,2005/12/12 21:00:13,41.3204,3.0983,14.28,-0.189304,-0.317433,00111100,1,3.1746,12
62699,60642,2005/12/12 22:00:11,41.3112,3.0884,14.28,-0.229798,-0.284323,00111100,1,3.1746,12
62699,60642,2005/12/12 23:00:11,41.3017,3.0766,14.28,-0.273788,-0.293431,00111100,3,3.1746,12
62699,60642,2005/12/13 00:00:41,41.2912,3.0616,14.28,-0.345212,-0.321638,00111100,1,3.1746,12
62699,60642,2005/12/13 05:00:12,41.2473,2.9670,14.12,-0.439948,-0.27163,00111100,1,7.93651,12
62699,60642,2005/12/13 06:00:08,41.2414,2.9510,14.12,-0.372004,-0.182439,00111100,1,7.93651,12
62699,60642,2005/12/13 07:00:12,41.2390,2.9395,14.04,-0.266802,-0.074048,00111100,1,9.52381,12
62699,60642,2005/12/13 09:00:11,41.2255,2.9162,14.04,-0.270652,-0.208519,00111100,4,11.1111,12
62699,60642,2005/12/13 13:00:11,41.1831,2.8821,13.96,-0.19811,-0.327407,00111100,1,6.34921,12
62699,60642,2005/12/13 14:00:41,41.1728,2.8690,13.88,-0.302032,-0.315512,00111100,1,9.52381,12
62699,60642,2005/12/13 16:00:12,41.1596,2.8554,14.04,-0.158754,-0.204682,00111100,3,0,12
62699,60642,2005/12/13 17:00:12,41.1559,2.8494,14.12,-0.139531,-0.114284,00111100,1,0,12
62699,60642,2005/12/13 18:00:41,41.1527,2.8460,14.12,-0.07844,-0.09805,00111100,1,0,12
62699,60642,2005/12/13 19:00:11,41.1512,2.8429,14.12,-0.072703,-0.046721,00111100,4,6.34921,12
62699,60642,2005/12/13 20:00:25,41.1531,2.8409,14.12,-0.046334,0.058459,00111100,1,3.1746,12
62699,60642,2005/12/13 23:00:11,41.1613,2.8527,14.12,0.09159,0.084535,00111100,1,0,12
62699,60642,2005/12/14 01:00:00,41.1600,2.8820,14.04,0.341195,-0.020108,00111100,1,0,12
62699,60642,2005/12/14 02:00:12,41.1575,2.8859,14.04,0.090393,-0.076962,00111100,1,0,12
62699,60642,2005/12/14 03:00:11,41.1543,2.9011,13.96,0.353587,-0.098867,00111100,1,0,12
62699,60642,2005/12/14 04:00:41,41.1537,2.9114,13.96,0.237563,-0.018379,00111100,1,0,12
62699,60642,2005/12/14 06:00:11,41.1486,2.9203,13.88,0.103929,-0.079093,00111100,3,0,12
62699,60642,2005/12/14 07:00:41,41.1431,2.9179,13.88,-0.055361,-0.168477,00111100,1,0,12
62699,60642,2005/12/14 08:00:12,41.1375,2.9140,13.88,-0.091456,-0.174375,00111100,1,3.1746,12
62699,60642,2005/12/14 09:00:12,41.1290,2.9072,13.96,-0.158194,-0.262544,00111100,4,1.5873,12
62699,60642,2005/12/14 15:00:16,41.1396,2.8955,14.28,-0.045355,0.054558,00111100,1,0,12
62699,60642,2005/12/14 17:00:13,41.1486,2.9107,14.12,0.17685,0.139052,00111100,1,3.1746,12
62699,60642,2005/12/14 18:00:41,41.1497,2.9194,14.04,0.200785,0.033714,00111100,1,0,12
62699,60642,2005/12/14 19:00:12,41.1483,2.9291,14.12,0.227438,-0.043594,00111100,1,3.1746,12
62699,60642,2005/12/14 20:00:12,41.1465,2.9376,14.12,0.1977,-0.055597,00111100,1,0,12
62699,60642,2005/12/14 22:00:41,41.1413,2.9570,14.12,0.224718,-0.079985,00111100,1,0,12
62699,60642,2005/12/14 23:00:12,41.1380,2.9690,14.12,0.281406,-0.102756,00111100,3,0,12
62699,60642,2005/12/15 01:00:09,41.1316,2.9860,14.04,0.197821,-0.098881,00111100,5,0,12
62699,60642,2005/12/15 02:00:40,41.1294,2.9879,14.12,0.043826,-0.067372,00111100,3,1.5873,12
62699,60642,2005/12/15 04:00:11,41.1311,2.9789,14.12,-0.105116,0.026361,00111100,3,0,12
62699,60642,2005/12/15 05:00:19,41.1348,2.9714,14.12,-0.174093,0.11403,00111100,1,0,12
62699,60642,2005/12/15 07:00:11,41.1456,2.9516,14.04,-0.230544,0.166978,00111100,1,0,12
62699,60642,2005/12/15 11:00:11,41.1674,2.9493,14.12,-0.013372,0.168337,00111100,3,0,12
62699,60642,2005/12/15 12:00:41,41.1716,2.9589,14.12,0.221365,0.128655,00111100,1,0,12
62699,60642,2005/12/15 14:00:12,41.1765,2.9866,14.28,0.323307,0.07598,00111100,1,0,12
62699,60642,2005/12/15 15:00:40,41.1762,3.0044,14.2,0.410631,-0.009195,00111100,1,0,12
62699,60642,2005/12/15 16:00:12,41.1750,3.0246,14.12,0.473308,-0.037356,00111100,1,0,12
62699,60642,2005/12/15 17:00:11,41.1717,3.0451,14.04,0.47675,-0.101957,00111100,1,0,12
62699,60642,2005/12/15 18:00:41,41.1665,3.0643,14.04,0.442733,-0.159287,00111100,1,0,12
62699,60642,2005/12/15 19:00:12,41.1616,3.0746,14.2,0.241451,-0.152578,00111100,1,0,12
62699,60642,2005/12/15 21:00:41,41.1556,3.0666,14.28,-0.092646,-0.092291,00111100,1,0,12
62699,60642,2005/12/15 22:00:07,41.1543,3.0570,14.28,-0.225388,-0.040537,00111100,1,0,12
62699,60642,2005/12/16 02:00:12,41.1776,3.0363,14.12,-0.120289,0.179857,00111100,4,1.5873,12
62699,60642,2005/12/16 03:00:11,41.1838,3.0423,14.12,0.139521,0.191556,00111100,1,0,12
62699,60642,2005/12/16 05:00:12,41.1956,3.0600,14.12,0.20568,0.182211,00111100,1,1.5873,12
62699,60642,2005/12/16 07:00:16,41.1997,3.0822,14.12,0.257832,0.063284,00111100,1,1.5873,12
62699,60642,2005/12/16 08:00:41,41.1989,3.0933,14.12,0.25619,-0.02454,00111100,4,3.1746,12
62699,60642,2005/12/16 09:00:11,41.1965,3.1054,14.12,0.283579,-0.074753,00111100,3,3.1746,12
62699,60642,2005/12/16 10:00:17,41.1922,3.1179,14.12,0.290044,-0.132595,00111100,1,1.5873,12
62699,60642,2005/12/16 12:00:10,41.1794,3.1339,14.28,0.186143,-0.197872,00111100,1,1.5873,12
62699,60642,2005/12/16 13:00:12,41.1740,3.1372,14.28,0.076677,-0.1667,00111100,3,1.5873,12
62699,60642,2005/12/16 14:00:41,41.1693,3.1384,14.28,0.027677,-0.144011,00111100,3,1.5873,12
62699,60642,2005/12/16 15:00:12,41.1664,3.1385,14.28,0.002344,-0.090301,00111100,3,0,12
62699,60642,2005/12/16 18:00:41,41.1655,3.1278,14.28,-0.082711,-0.009241,00111100,1,0,12
62699,60642,2005/12/17 02:00:41,41.1740,3.1522,14.04,0.070915,0.032818,00111100,3,0,12
62699,60642,2005/12/17 03:00:12,41.1715,3.1548,14.04,0.060941,-0.077846,00111100,1,0,12
62699,60642,2005/12/17 04:00:11,41.1683,3.1578,14.04,0.069772,-0.098867,00111100,4,1.5873,12
62699,60642,2005/12/17 05:00:17,41.1656,3.1608,14.04,0.06964,-0.083257,00111100,1,0,12